Home   Weather   42°05'N, 91°42'W   Past weeks
Flag for USA

Past Weather in 42°05'N, 91°42'W, USA — Yesterday and Last 2 Weeks

Now
72 °F

Partly sunny.


Feels Like: 71 °F
Forecast: 81 / 69 °F
Wind: 8 mph from Northeast

Location: Cedar Rapids Municipal Airport

Current Time: Jul 21, 2019 at 10:15:23 am

Latest Report: Jul 21, 2019 at 8:52 am


Visibility: 10 mi

Pressure: 29.97 "Hg

Humidity: 84%

Dew Point: 67 °F

Location of 42°05'N, 91°42'WLocation

Past Weather in 42°05'N, 91°42'W — Graph

°F

42°05'N, 91°42'W Temperature Yesterday

Maximum temperature yesterday: 91 °F (at 1:52 pm)
Minimum temperature yesterday: 72 °F (at 11:52 pm)
Average temperature yesterday: 80 °F

High & Low Weather Summary for the Past Weeks

 TemperatureHumidityPressure
High92 °F (Jul 19, 3:52 pm)100% (Jul 12, 4:52 am)30.09 "Hg (Jul 12, 4:52 am)
Low57 °F (Jul 12, 5:52 am)46% (Jul 10, 2:52 pm)29.67 "Hg (Jul 18, 6:52 pm)
Average77 °F78%29.92 "Hg
* Reported Jul 6 8:08 am — Jul 21 8:52 am, 42°05'N, 91°42'W. Weather by CustomWeather, © 2019

Note: Actual official high and low records may vary slightly from our data, if they occured in-between our weather recording intervals... More about our weather records

Advertising

42°05'N, 91°42'W Weather History for the Previous 24 Hours

Scroll right to see more
 ConditionsComfort  
Time TempWeatherWind HumidityBarometerVisibility
8:52 am
Sun, Jul 21
72 °FPartly sunny.8 mph84%29.97 "Hg10 mi
7:52 am70 °FScattered clouds.12 mph87%29.95 "Hg10 mi
7:25 am70 °FOvercast.12 mph87%29.98 "Hg10 mi
6:52 am70 °FOvercast.12 mph90%29.94 "Hg10 mi
5:57 am68 °FOvercast.5 mph96%29.94 "Hg10 mi
4:52 am67 °FLow clouds.5 mph100%29.93 "Hg10 mi
3:52 am68 °FClear.7 mph96%29.93 "Hg10 mi
2:52 am70 °FClear.6 mph90%29.91 "Hg10 mi
1:52 am70 °FClear.13 mph90%29.88 "Hg10 mi
12:52 am70 °FPassing clouds.9 mph87%29.88 "Hg10 mi
11:52 pm
Sat, Jul 20
72 °FPassing clouds.17 mph91%29.87 "Hg10 mi
10:52 pm73 °FPassing clouds.12 mph94%29.84 "Hg10 mi
10:37 pm74 °FPassing clouds.15 mph94%29.88 "Hg10 mi
10:19 pm73 °FPassing clouds.14 mph97%29.81 "Hg10 mi
9:52 pm74 °FLight rain. Overcast.15 mph97%29.86 "Hg10 mi
8:52 pm76 °FLight rain. Passing clouds.3 mph91%29.85 "Hg10 mi
7:52 pm78 °FSunny.3 mph79%29.82 "Hg10 mi
6:52 pm79 °FWarm.7 mph77%29.81 "Hg10 mi
5:52 pm82 °FPassing clouds.10 mph67%29.84 "Hg10 mi
4:52 pm83 °FSunny.14 mph65%29.84 "Hg10 mi
3:52 pm82 °FSunny.18 mph65%29.82 "Hg10 mi
2:52 pm82 °FMostly cloudy.28 mph70%29.84 "Hg10 mi
1:52 pm91 °FBroken clouds.7 mph68%29.82 "Hg10 mi
12:52 pm90 °FSunny.9 mph66%29.82 "Hg10 mi
11:52 am88 °FSunny.8 mph70%29.81 "Hg10 mi
10:52 am87 °FSunny.9 mph72%29.80 "Hg10 mi
Weather by CustomWeather, © 2019

See weather overview